Regional Weather Roundup
Issued by NWS Upton, NY

Current Version | Previous Version | Graphics & Text | Print | Product List | Glossary Off
Versions: 1 2 3 4 5 6 7 8 9 10 11 12 13 14 15 16 17 18 19 20 21 22 23 24 25 26 27 28 29 30 31 32 33 34 35 36 37 38 39 40 41 42 43 44 45 46 47 48 49 50

000
ASUS41 KOKX 020504
RWROKX

REGIONAL WEATHER ROUNDUP
NATIONAL WEATHER SERVICE NEW YORK NY
100 AM EDT SUN AUG 02 2015

NOTE: "FAIR" INDICATES FEW OR NO CLOUDS BELOW 12,000 FEET WITH NO
SIGNIFICANT WEATHER AND/OR OBSTRUCTIONS TO VISIBILITY.

NYZ071-072-176-178-NJZ106-104-020600-
NEW YORK CITY METRO AREA


CITY           SKY/WX    TMP DP  RH WIND       PRES   REMARKS
CENTRAL PARK   MOCLDY    77  54  44 CALM      29.89R
LAGUARDIA APRT MOCLDY    78  59  51 NW6       29.85R
KENNEDY INTL   MOCLDY    80  54  40 W5        29.86R
NEWARK/LIBERTY MOCLDY    77  57  50 W6        29.86R
BRNX BOT. GARD   N/A     75  54  46 W5        29.88R
TETERBORO      PTCLDY    74  56  53 CALM      29.85R
$$

NYZ177-179-078>081-020600-
LONG ISLAND NEW YORK

CITY           SKY/WX    TMP DP  RH WIND       PRES   REMARKS
FARMINGDALE    CLEAR     76  57  51 NW3       29.86R
ISLIP          CLEAR     72  58  61 CALM      29.84R
SHIRLEY        PTCLDY    68  59  73 CALM      29.86R
WESTHAMPTON    CLEAR     62  57  83 CALM      29.87R
MONTAUK POINT    N/A     75  66  73 W6        29.86R
$$

NYZ052-065-067-020600-
HUDSON VALLEY

CITY           SKY/WX    TMP DP  RH WIND       PRES   REMARKS
WHITE PLAINS   CLEAR     69  58  67 N6        29.86S
NEWBURGH       CLEAR     66  61  82 CALM      29.89S
MONTGOMERY     CLEAR     62  58  86 CALM      29.88R
POUGHKEEPSIE   CLEAR     63  58  83 CALM      29.86S
ALBANY         CLEAR     64  54  69 CALM      29.86S
$$

NJZ001-105-106-008-010-013-015-019>022-104-020600-
NEW JERSEY

CITY           SKY/WX    TMP DP  RH WIND       PRES   REMARKS
NEWARK/LIBERTY MOCLDY    77  57  50 W6        29.86R
TETERBORO      PTCLDY    74  56  53 CALM      29.85R
CALDWELL       MOCLDY    69  58  67 CALM      29.87R
MORRISTOWN     CLOUDY    66  61  82 CALM      29.87R
SOMERVILLE     PTCLDY    64  60  87 CALM      29.86R
SUSSEX         CLEAR     61  57  87 CALM      29.88F
ANDOVER          N/A     61  60  97 CALM      29.90R
TRENTON        PTCLDY    70  59  68 CALM      29.87S
MILLVILLE      PTCLDY    70  66  87 W3        29.89R
ATLANTIC CITY  PTCLDY    75  64  68 CALM      29.88S
WRIGHTSTOWN    NOT AVBL
TOMS RIVER       N/A     64  59  82 CALM      29.89R
BELMAR         CLEAR     70  55  60 W5        29.88R
$$

PAZ047>061-062-071-020600-
EASTERN PENNSYLVANIA

CITY           SKY/WX    TMP DP  RH WIND       PRES   REMARKS
PHILADELPHIA   PTCLDY    77  62  59 SW5       29.89R
ALLENTOWN      CLEAR     69  58  67 W5        29.89R
SCRANTON       CLEAR     62  57  83 E5        29.91S
$$

CTZ002-004>006-009-010-012-RIZ004-006-007-MAZ004-011-015-020600-
SOUTHERN NEW ENGLAND
 IN CT

CITY           SKY/WX    TMP DP  RH WIND       PRES   REMARKS
BRADLEY INTL   CLEAR     67  57  70 CALM      29.85S
HARTFORD       CLEAR     70  66  87 CALM      29.85R
DANBURY        CLEAR     63  58  83 SW5       29.88S
WTRBRY/OXFORD  CLEAR     64  55  72 N3        29.89R
BRIDGEPORT     MOCLDY    75  60  59 CALM      29.85R
MERIDEN        CLEAR     65  61  87 CALM      29.86R
NEW HAVEN      PTCLDY    72  61  68 NW5       29.85S
CHESTER        FAIR      70  59  68 NW5       29.87R
GROTON         CLEAR     67  63  87 CALM      29.84R
WILLIMANTIC    CLEAR     65  62  90 CALM      29.86R

 IN RI

CITY           SKY/WX    TMP DP  RH WIND       PRES   REMARKS
PROVIDENCE     CLEAR     71  62  73 W3        29.84S
BLOCK ISLAND     N/A     72  64  78 W8        29.84S
WESTERLY       PTCLDY    67  64  90 CALM      29.84S

 IN MA

CITY           SKY/WX    TMP DP  RH WIND       PRES   REMARKS
BOSTON         PTCLDY    74  56  53 W7        29.82S
WORCESTER      CLEAR     65  54  67 W9        29.87S
WESTFIELD      CLEAR     61  59  93 S3        29.86S
PROVINCETOWN   MOCLDY    70  63  78 W7        29.82S
NANTUCKET      PTCLDY    73  71  93 W8        29.82S
$$

ANZ330-335-338-340-345-350-353-355-020600-
COASTAL MARINE OBSERVATIONS


STATION/POSITION TIME  SKY/WX   TEMP    WIND        PRES    VSBY  WAVE
                                AIR SEA DIR/SP/G                  HT/PER
                 (UTC)          (F)     (DEG/KT/KT) (MB)    (MI)  (FT/S)
NY HARB ENTRANCE 0350            77 77  270/  8/ 10 1010.4          3/ 8
4S FIRE IS       NOT AVBL
20S FIRE ISLAND  0350            77 76  250/  4/  6 1010.5          4/ 8
GREAT SOUTH BAY  0400            79 81  310/  8/  8   N/A
23SW MTP         0450            75 74  260/ 10/ 10 1010.1          4/ 8
HUDSON CANYON    NOT AVBL
KINGS POINT      0400            76 70   10/  3/  3 1010.0
EXECUTION ROCKS  0400            75     320/  2/  4   N/A
CENTRAL LI SOUND NOT AVBL
EASTERN LI SOUND 0400            71 69  260/  6/  6   N/A
ROBBINS REEF     0400            78     300/  6/  6 1009.8
$$


>>>>>>>>>>>>>>>>>>>>>>>>>>>> KEY <<<<<<<<<<<<<<<<<<<<<<<<<<<
>                                                          <
>     SKY/WX - SKY CONDITION/PRESENT WEATHER               <
>     TMP    - TEMPERATURE IN FAHRENHEIT                   <
>     DP     - DEWPOINT IN FAHRENHEIT                      <
>     RH     - RELATIVE HUMIDITY IN PERCENT                <
>     WIND   - DIRECTION AND SPEED IN MPH                  <
>     PRES   - MEAN SEA LEVEL PRESSURE IN INCHES OF HG     <
>     WCI    - WIND CHILL INDEX                            <
>     VSB    - VISIBILITY IN MILES                         <
>     HX     - HEAT INDEX                                  <
>     TC     - TEMPERATURE IN CELSIUS                      <
>     VRB    - VARIABLE WIND DIRECTION                     <
>                                                          <
>>>>>>>>>>>>>>>>>>>>>>>>>>>> KEY <<<<<<<<<<<<<<<<<<<<<<<<<<<




USA.gov is the U.S. government's official web portal to all federal, state and local government web resources and services.